[[{"header":{"parameterUnit":"m.s-1","parameterCategory":1,"la1":30.2991,"la2":30.254,"lo1":-89.0895,"lo2":-89.0444,"dy":0.0017,"dx":0.0017,"nx":28,"ny":28,"refTime":"2023-08-25T09:00:00:Z","depth":0,"parameterNumber":2,"parameterNumberName":"U-component_of_WINDS"},"data":[0,0,0,0,0,0,0,0,0,0,0,0,0,0,0,0,0,0,0,0,0,0,0,0,0,0,0,0,0,0,0,0,0,0,0,0,0,0,0,0,0,0,0,0,0,0,0,0,0,0,0,0,0,0,0,0,0,0,-1.1923,-1.1923,0,-1.1978,-1.1979,-1.198,-1.1969,-1.1968,-1.1967,-1.1966,-1.2025,-1.2028,-1.203,0,0,0,0,0,0,0,0,0,0,0,0,0,-1.1809,-1.1812,-1.1923,-1.1923,-1.1924,-1.1978,-1.1979,-1.198,-1.1969,-1.1968,-1.1967,-1.1965,-1.2025,-1.2028,-1.2031,0,0,0,0,0,0,0,0,0,0,0,0,0,-1.1861,-1.1812,-1.1922,-1.1925,-1.1926,-1.1978,-1.1979,-1.198,-1.1969,-1.1968,-1.1966,-1.1965,-1.2024,-1.2027,-1.2031,-1.2085,0,0,-1.2043,-1.2044,0,0,0,0,0,0,0,0,-1.1858,-1.1865,-1.1924,-1.1925,-1.1926,-1.1965,-1.1961,-1.2015,-1.197,-1.1953,-1.1966,-1.1964,-1.2007,-1.2012,-1.2026,-1.2088,-1.209,-1.2043,-1.2045,-1.2047,-1.2048,0,0,0,0,0,0,0,-1.1855,-1.1863,-1.1945,-1.1925,-1.1926,-1.1924,-1.193,-1.1971,-1.1988,-1.1954,-1.1954,-1.196,-1.2007,-1.2022,-1.2027,-1.2091,-1.2043,-1.2046,-1.2049,-1.205,-1.2201,-1.2203,0,0,0,0,0,0,-1.185,-1.186,-1.1943,-1.1946,-1.1888,-1.1928,-1.1934,-1.1954,-1.1987,-1.1991,-1.1961,-1.196,-1.2016,-1.2023,-1.2029,-1.2095,-1.2047,-1.205,-1.2053,-1.22,-1.2202,-1.2204,0,0,0,0,0,0,-1.1848,-1.1857,-1.1941,-1.1903,-1.1914,-1.1931,-1.1954,-1.1956,-1.1971,-1.1993,-1.1996,-1.1974,-1.2015,-1.2024,-1.2071,-1.2097,-1.2052,-1.2056,-1.2198,-1.22,-1.2203,-1.2227,0,0,0,0,0,0,-1.1844,-1.1857,-1.1877,-1.1904,-1.1916,-1.1981,-1.1955,-1.1958,-1.1977,-1.1975,-1.2005,-1.2008,-1.2015,-1.2066,-1.2075,-1.2101,-1.2059,-1.2195,-1.2199,-1.2202,-1.2224,-1.223,-1.2236,0,0,0,0,0,-1.184,-1.1881,-1.1878,-1.1888,-1.1941,-1.1983,-1.199,-1.1995,-1.1979,-1.2,-1.2014,-1.2008,-1.2093,-1.2071,-1.2081,-1.2109,-1.2194,-1.2198,-1.2202,-1.2222,-1.2229,-1.2235,0,0,0,0,0,0,-1.1858,-1.1885,-1.1881,-1.1932,-1.1955,-1.1981,-1.2007,-1.2003,-1.2032,-1.2029,-1.2035,-1.2042,-1.2091,-1.2105,-1.208,-1.2164,-1.2141,-1.2147,-1.2153,-1.216,-1.2166,-1.2162,-1.2062,0,0,0,0,0,-1.1867,-1.1898,-1.1921,-1.1964,-1.1975,-1.1989,-1.2008,-1.201,-1.2035,-1.2044,-1.2062,-1.2087,-1.2119,-1.214,-1.2171,-1.2226,-1.2233,-1.2251,-1.2256,-1.2261,-1.2266,-1.2298,-1.2306,-1.2217,-1.2217,-1.2217,0,0,-1.1888,-1.1907,-1.1926,-1.1968,-1.1986,-1.2018,-1.1997,-1.2033,-1.2058,-1.205,-1.2096,-1.211,-1.2138,-1.219,-1.2213,-1.2203,-1.2293,-1.2266,-1.2269,-1.2273,-1.2303,-1.2311,-1.2319,-1.2219,-1.2219,-1.2218,0,0,-1.1942,-1.1959,-1.1997,-1.2015,-1.2043,-1.2052,-1.2061,-1.2088,-1.2096,-1.2142,-1.2138,-1.2168,-1.2223,-1.2243,-1.2261,-1.2324,-1.2319,-1.2334,-1.2364,-1.2394,-1.2401,-1.2408,-1.2431,-1.2439,-1.2339,-1.2339,-1.2339,0,-1.1964,-1.2012,-1.2017,-1.2053,-1.2072,-1.2066,-1.2105,-1.2123,-1.216,-1.2174,-1.2161,-1.2231,-1.2249,-1.2306,-1.2322,-1.2336,-1.2348,-1.2331,-1.24,-1.2406,-1.2412,-1.2434,-1.2443,-1.2341,-1.2341,-1.234,-1.234,0,-1.2039,-1.2073,-1.21,-1.2135,-1.2157,-1.2195,-1.2206,-1.2228,-1.2229,-1.2239,-1.2287,-1.2309,-1.2345,-1.2358,-1.236,-1.2416,-1.2409,-1.2398,-1.2375,-1.2422,-1.2443,-1.2452,-1.2343,-1.2343,-1.2342,-1.2342,0,0,-1.2106,-1.2143,-1.2153,-1.2169,-1.2199,-1.2226,-1.2263,-1.2298,-1.2317,-1.2343,-1.2375,-1.2422,-1.2413,-1.2433,-1.2437,-1.2463,-1.2513,-1.2449,-1.245,-1.2461,-1.2577,-1.2586,-1.2595,-1.2509,-1.2511,-1.2512,-1.2575,0,-1.2163,-1.2229,-1.2234,-1.2294,-1.2325,-1.2321,-1.2354,-1.2376,-1.2388,-1.2417,-1.243,-1.2464,-1.2448,-1.246,-1.2486,-1.2501,-1.2536,-1.2496,-1.2541,-1.2542,-1.2535,-1.2606,-1.2615,-1.2673,-1.2583,-1.2585,-1.2586,0,-1.2239,-1.2266,-1.2329,-1.2355,-1.2369,-1.2398,-1.2431,-1.2458,-1.2485,-1.2491,-1.2514,-1.2514,-1.2554,-1.253,-1.2586,-1.2559,-1.2577,-1.2587,-1.259,-1.2595,-1.2567,-1.2614,-1.2692,-1.2701,-1.2599,-1.2598,-1.2597,0,-1.2283,-1.2335,-1.2379,-1.2393,-1.2425,-1.2446,-1.246,-1.2485,-1.2505,-1.2534,-1.2548,-1.2581,-1.2599,-1.2625,-1.2635,-1.2616,-1.2691,-1.2667,-1.2698,-1.2698,-1.2715,-1.2714,-1.2798,-1.2725,-1.2725,-1.2725,-1.2725,0,-1.2347,-1.2386,-1.24,-1.2427,-1.247,-1.2477,-1.252,-1.2533,-1.2555,-1.2586,-1.2584,-1.2613,-1.2624,-1.2655,-1.2663,-1.2709,-1.2717,-1.2724,-1.2726,-1.2725,-1.2724,-1.2737,-1.2734,-1.2727,-1.2727,-1.2726,-1.2726,0,-1.2403,-1.2414,-1.2462,-1.2488,-1.2495,-1.2527,-1.2549,-1.2576,-1.2587,-1.2626,-1.2636,-1.2653,-1.269,-1.2702,-1.2746,-1.2752,-1.2805,-1.2803,-1.2796,-1.2797,-1.2828,-1.2825,-1.2924,-1.2938,-1.2855,-1.2856,-1.2857,0,-1.2444,-1.2474,-1.2502,-1.2522,-1.2537,-1.257,-1.2591,-1.2598,-1.262,-1.2653,-1.2676,-1.2712,-1.2742,-1.2801,-1.2818,-1.2852,-1.2852,-1.2884,-1.2857,-1.2855,-1.2853,-1.2852,-1.2855,-1.2889,-1.289,-1.2891,-1.2891,0,-1.2516,-1.2519,-1.2549,-1.2581,-1.2606,-1.2631,-1.2656,-1.2673,-1.2684,-1.2709,-1.2746,-1.2769,-1.2814,-1.2851,-1.2886,-1.2902,-1.2899,-1.29,-1.2909,-1.2908,-1.2904,-1.2908,-1.2811,-1.2898,-1.2897,-1.2896,-1.2896,-1.2896,-1.2566,-1.2592,-1.2617,-1.265,-1.267,-1.2693,-1.272,-1.2734,-1.2764,-1.2801,-1.2804,-1.2845,-1.2871,-1.2918,-1.2935,-1.2968,-1.2959,-1.2972,-1.2976,-1.2979,-1.2982,-1.2898,-1.2974,-1.2974,-1.2974,-1.2974,-1.2974,0,-1.2639,-1.2654,-1.2684,-1.2719,-1.2745,-1.2739,-1.2767,-1.279,-1.2825,-1.2849,-1.2878,-1.2921,-1.2957,-1.2977,-1.3012,-1.3035,-1.3034,-1.3044,-1.3043,-1.3047,-1.2987,-1.2976,-1.3044,-1.3044,-1.3044,-1.3044,-1.3044,-1.3044,-1.2679,-1.2724,-1.2731,-1.2785,-1.2801,-1.284,-1.2856,-1.2878,-1.2897,-1.2945,-1.2974,-1.2987,-1.301,-1.3047,-1.308,-1.3085,-1.3099,-1.311,-1.3114,-1.3058,-1.3051,-1.3044,-1.3034,-1.3112,-1.3112,-1.3171,-1.3171,-1.3172]},{"header":{"parameterUnit":"m.s-1","parameterCategory":1,"la1":30.2991,"la2":30.254,"lo1":-89.0895,"lo2":-89.0444,"dy":0.0017,"dx":0.0017,"nx":28,"ny":28,"refTime":"2023-08-25T09:00:00:Z","depth":0,"parameterNumber":3,"parameterNumberName":"V-component_of_WINDS"},"data":[0,0,0,0,0,0,0,0,0,0,0,0,0,0,0,0,0,0,0,0,0,0,0,0,0,0,0,0,0,0,0,0,0,0,0,0,0,0,0,0,0,0,0,0,0,0,0,0,0,0,0,0,0,0,0,0,0,0,4.2264,4.2264,0,4.2255,4.2255,4.2255,4.22,4.2198,4.2197,4.2196,4.2187,4.2188,4.2189,0,0,0,0,0,0,0,0,0,0,0,0,0,4.2232,4.2233,4.2264,4.2264,4.2263,4.2255,4.2255,4.2255,4.22,4.2198,4.2197,4.2195,4.2187,4.2188,4.2189,0,0,0,0,0,0,0,0,0,0,0,0,0,4.2237,4.2233,4.2264,4.2235,4.2232,4.2255,4.2255,4.2255,4.22,4.2198,4.2196,4.2194,4.2187,4.2188,4.219,4.224,0,0,4.2194,4.2195,0,0,0,0,0,0,0,0,4.2237,4.2238,4.2239,4.2237,4.2234,4.2227,4.2241,4.225,4.2201,4.2212,4.2196,4.2193,4.2202,4.2202,4.2205,4.2239,4.2239,4.2194,4.2195,4.2196,4.2196,0,0,0,0,0,0,0,4.2236,4.2238,4.226,4.2239,4.2236,4.2223,4.2221,4.2242,4.2219,4.2211,4.2207,4.2207,4.22,4.2204,4.2204,4.2239,4.2194,4.2196,4.2197,4.2197,4.2314,4.2316,0,0,0,0,0,0,4.224,4.2238,4.2261,4.226,4.223,4.2225,4.2223,4.2231,4.2218,4.2214,4.2209,4.2204,4.2202,4.2203,4.2204,4.2261,4.2196,4.2197,4.2198,4.2311,4.2314,4.2316,0,0,0,0,0,0,4.224,4.2243,4.2261,4.2248,4.2249,4.2227,4.2237,4.2232,4.2235,4.2216,4.2212,4.2217,4.22,4.2202,4.2231,4.226,4.2198,4.22,4.2309,4.2312,4.2315,4.2376,0,0,0,0,0,0,4.2239,4.2243,4.2261,4.2249,4.225,4.2288,4.2239,4.2233,4.2238,4.2232,4.2223,4.2219,4.2199,4.2229,4.2233,4.2261,4.2201,4.2306,4.231,4.2314,4.2371,4.2381,4.2389,0,0,0,0,0,4.2238,4.2279,4.2263,4.2266,4.2273,4.229,4.2291,4.2267,4.2241,4.2259,4.2247,4.2219,4.2257,4.2233,4.2236,4.2265,4.2304,4.2309,4.2314,4.2367,4.2379,4.2389,0,0,0,0,0,0,4.2295,4.2277,4.2258,4.2297,4.2295,4.2281,4.2303,4.228,4.2286,4.2281,4.2251,4.2249,4.2283,4.2277,4.2251,4.2313,4.2276,4.2281,4.2315,4.2326,4.2335,4.2335,4.2202,0,0,0,0,0,4.2312,4.2327,4.2311,4.2346,4.2346,4.2325,4.2332,4.2314,4.2311,4.231,4.23,4.2299,4.231,4.2318,4.2328,4.2371,4.2368,4.2393,4.2402,4.2409,4.2414,4.2436,4.2447,4.2332,4.2332,4.2332,0,0,4.2347,4.2339,4.2351,4.2357,4.2354,4.2371,4.2325,4.2344,4.2356,4.2313,4.234,4.2333,4.2329,4.2366,4.2382,4.2362,4.2446,4.2416,4.2422,4.2422,4.2442,4.2453,4.2463,4.2336,4.2335,4.2334,0,0,4.242,4.2416,4.2444,4.2442,4.2438,4.2424,4.2431,4.242,4.2414,4.2441,4.2409,4.2423,4.2443,4.2441,4.2443,4.2517,4.2491,4.2521,4.2567,4.2589,4.2598,4.2606,4.2631,4.264,4.2526,4.2526,4.2526,0,4.2464,4.2487,4.2462,4.2483,4.2487,4.2449,4.2478,4.2477,4.2477,4.248,4.2459,4.2484,4.2479,4.2514,4.2532,4.2536,4.2542,4.2521,4.2599,4.2606,4.2613,4.2637,4.2646,4.253,4.2529,4.2529,4.2529,0,4.2541,4.2558,4.2582,4.2582,4.2589,4.2614,4.2592,4.2602,4.2584,4.2572,4.26,4.2593,4.26,4.2608,4.259,4.2641,4.2629,4.2604,4.2565,4.2628,4.265,4.2659,4.2535,4.2534,4.2533,4.2532,0,0,4.2647,4.2634,4.2643,4.2643,4.2636,4.2649,4.2673,4.268,4.2688,4.269,4.2708,4.2727,4.2704,4.2706,4.2689,4.2708,4.2765,4.268,4.268,4.2695,4.282,4.2838,4.2849,4.2749,4.2751,4.2752,4.282,0,4.2716,4.2755,4.2733,4.2775,4.279,4.2756,4.2776,4.2774,4.2765,4.2776,4.2765,4.2778,4.2747,4.2748,4.2766,4.2755,4.279,4.275,4.2766,4.2766,4.2766,4.286,4.2879,4.2943,4.2828,4.283,4.2831,0,4.28,4.2805,4.2849,4.2839,4.2845,4.2864,4.2869,4.288,4.2878,4.2869,4.2873,4.285,4.2873,4.2836,4.2867,4.284,4.2846,4.2841,4.2843,4.2842,4.2801,4.2861,4.2963,4.2973,4.2844,4.2843,4.2842,0,4.2871,4.289,4.2918,4.2919,4.2909,4.2923,4.292,4.2915,4.2921,4.2926,4.2929,4.2937,4.2941,4.2947,4.2927,4.2903,4.296,4.2922,4.2953,4.2954,4.2965,4.2964,4.3069,4.2972,4.2971,4.2971,4.2971,0,4.2949,4.2977,4.295,4.2967,4.2997,4.2973,4.3003,4.2996,4.2993,4.3008,4.2979,4.2994,4.2968,4.2981,4.2966,4.2993,4.2995,4.2988,4.2984,4.299,4.2991,4.2992,4.2986,4.2974,4.2973,4.2973,4.2972,0,4.3033,4.3016,4.3045,4.3033,4.3031,4.3054,4.3044,4.306,4.3049,4.3068,4.3072,4.3054,4.3067,4.3048,4.306,4.305,4.3087,4.3076,4.3087,4.3084,4.3115,4.3112,4.3223,4.3236,4.3132,4.3133,4.3134,0,4.3083,4.3103,4.3095,4.3103,4.3101,4.3115,4.3121,4.3098,4.3105,4.3105,4.312,4.3131,4.3139,4.3161,4.3149,4.3158,4.3147,4.3185,4.3147,4.3153,4.3146,4.3144,4.3146,4.3192,4.3193,4.3194,4.3195,0,4.3173,4.3163,4.3173,4.318,4.3188,4.3193,4.3195,4.3203,4.3179,4.3189,4.3202,4.3208,4.322,4.3231,4.3237,4.3233,4.321,4.3207,4.3215,4.322,4.3226,4.3222,4.3107,4.3204,4.3203,4.3203,4.3202,4.3202,4.324,4.3256,4.3253,4.3265,4.3264,4.3267,4.3281,4.3272,4.3283,4.329,4.3277,4.3294,4.3291,4.3296,4.3296,4.3308,4.3292,4.3303,4.3305,4.3308,4.3312,4.3225,4.3309,4.3309,4.3309,4.3309,4.3308,0,4.3327,4.3323,4.3335,4.3339,4.3348,4.3327,4.3328,4.3338,4.3353,4.3353,4.3361,4.3376,4.3387,4.3376,4.3385,4.3397,4.3387,4.34,4.3398,4.3398,4.3327,4.3319,4.3408,4.3408,4.3408,4.3408,4.3408,4.3408,4.3373,4.34,4.3391,4.3417,4.3413,4.3429,4.3432,4.3435,4.3435,4.3453,4.3462,4.3455,4.3451,4.3459,4.3468,4.3465,4.3469,4.3486,4.3479,4.3413,4.3403,4.3393,4.3386,4.3487,4.3487,4.3548,4.3548,4.3549]}]]